This demonstration page uses our WeatherBlox Daily Observations layout. Learn more.

40.92945, -100.16068

Hourly Observations for July 29, 2015

Temp ( °F °C ) Dew Point ( °F °C ) Humidity (%) Winds ( mph kmh ) Pressure ( in mb ) Visibility ( mi km ) Precip ( " mm )
12:15 am 00:15 Clear 62 16.4 56 13.3 82 82 N 5 7 30.06 1018 10 16.0934 N/A
12:35 am 00:35 Clear 60 15.4 55 12.5 83 83 Calm 30.06 1018 10 16.0934 N/A
12:55 am 00:55 Clear 60 15.8 54 12.2 79 79 Calm 30.06 1018 10 16.0934 N/A
1:15 am 01:15 Clear 58 14.7 53 11.8 83 83 N 3 6 30.06 1018 10 16.0934 N/A
1:35 am 01:35 Clear 59 14.8 52 11.3 80 80 Calm 30.06 1018 10 16.0934 N/A
1:55 am 01:55 Clear 59 14.9 51 10.8 77 77 Calm 30.09 1019 10 16.0934 N/A
2:15 am 02:15 Clear 59 15 51 10.8 76 76 Calm 30.09 1019 10 16.0934 N/A
2:35 am 02:35 Clear 58 14.3 52 11.2 82 82 Calm 30.12 1020 10 16.0934 N/A
2:55 am 02:55 Clear 56 13.5 52 11.1 86 86 NW 3 6 30.15 1021 10 16.0934 N/A
3:15 am 03:15 Clear 56 13.3 52 11.1 87 87 WNW 3 6 30.15 1021 10 16.0934 N/A
3:35 am 03:35 Clear 56 13.1 52 10.9 87 87 W 3 6 30.15 1021 10 16.0934 N/A
3:55 am 03:55 Clear 56 13.2 52 10.9 86 86 W 3 6 30.15 1021 10 16.0934 N/A
4:15 am 04:15 Clear 55 12.8 52 11 89 89 NW 5 7 30.18 1022 10 16.0934 N/A
4:35 am 04:35 Clear 55 12.7 52 11 89 89 WNW 6 9 30.18 1022 10 16.0934 N/A
4:55 am 04:55 Clear 55 12.5 51 10.8 89 89 NW 8 13 30.18 1022 10 16.0934 N/A
5:15 am 05:15 Clear 55 12.6 51 10.7 88 88 NW 7 11 30.18 1022 10 16.0934 N/A
5:35 am 05:35 Clear 55 12.5 51 10.8 89 89 WNW 5 7 30.18 1022 10 16.0934 N/A
5:55 am 05:55 Clear 54 12.2 51 10.8 91 91 WNW 3 6 30.21 1023 10 16.0934 N/A
6:15 am 06:15 Clear 54 12.1 51 10.8 92 92 WNW 5 7 30.21 1023 10 16.0934 N/A
6:35 am 06:35 Sunny 54 12.1 51 10.7 91 91 Calm 30.21 1023 10 16.0934 N/A
6:55 am 06:55 Sunny 54 12.2 52 11 92 92 W 3 6 30.21 1023 10 16.0934 N/A
7:15 am 07:15 Sunny 55 12.8 53 11.5 92 92 W 6 9 30.24 1024 10 16.0934 N/A
7:35 am 07:35 Sunny 56 13.4 53 11.7 90 90 W 5 7 30.24 1024 10 16.0934 N/A
7:55 am 07:55 Sunny 58 14.2 55 12.6 90 90 W 5 7 30.24 1024 10 16.0934 N/A
8:15 am 08:15 Sunny 59 15.1 56 13.1 88 88 Calm 30.27 1025 10 16.0934 N/A
8:35 am 08:35 Sunny 61 16 56 13.6 86 86 Calm 30.24 1024 10 16.0934 N/A
8:55 am 08:55 Sunny 62 16.6 58 14.2 86 86 Calm 30.24 1024 10 16.0934 N/A
9:15 am 09:15 Sunny 65 18.3 57 13.8 75 75 Calm 30.24 1024 10 16.0934 N/A
9:35 am 09:35 Sunny 67 19.5 57 13.7 69 69 WSW 3 6 30.21 1023 10 16.0934 N/A
9:55 am 09:55 Sunny 69 20.8 57 14.1 66 66 Calm 30.21 1023 10 16.0934 N/A
10:15 am 10:15 Sunny 72 22.1 55 12.9 56 56 Calm 30.21 1023 10 16.0934 N/A
10:35 am 10:35 Sunny 74 23.1 53 11.6 48 48 SSW 3 6 30.15 1021 10 16.0934 N/A
10:55 am 10:55 Sunny 75 23.8 50 9.8 41 41 ENE 3 6 30.15 1021 10 16.0934 N/A
11:15 am 11:15 Sunny 76 24.7 47 8.5 36 36 E 7 11 30.15 1021 10 16.0934 N/A
11:35 am 11:35 Sunny 77 25.1 48 8.9 36 36 E 9 15 30.15 1021 10 16.0934 N/A
11:55 am 11:55 Sunny 78 25.4 50 9.8 37 37 E 9 15 30.15 1021 10 16.0934 N/A
12:15 pm 12:15 Sunny 79 26 47 8.2 32 32 E 10 17 30.12 1020 10 16.0934 N/A
12:35 pm 12:35 Sunny 79 26.1 47 8.2 32 32 E 7 11 30.12 1020 10 16.0934 N/A
12:55 pm 12:55 Sunny 78 25.3 49 9.7 37 37 NE 6 9 30.15 1021 10 16.0934 N/A
1:15 pm 13:15 Hazy 77 24.9 52 11.1 42 42 NE 6 9 30.15 1021 5 8.0467 N/A
1:35 pm 13:35 Sunny 78 25.4 51 10.3 39 39 NE 3 6 30.15 1021 7 11.26538 N/A
1:55 pm 13:55 Sunny 79 26 47 8.2 32 32 E 5 7 30.12 1020 10 16.0934 N/A
2:15 pm 14:15 Sunny 79 26.2 46 7.8 31 31 ESE 5 7 30.12 1020 10 16.0934 N/A
2:35 pm 14:35 Sunny 81 27.3 47 8.2 30 30 SSE 7 11 30.12 1020 10 16.0934 N/A
2:55 pm 14:55 Sunny 80 26.6 49 9.3 34 34 SW 5 7 30.12 1020 10 16.0934 N/A
3:15 pm 15:15 Sunny 81 27.4 49 9.5 33 33 S 8 13 30.12 1020 10 16.0934 N/A
3:35 pm 15:35 Sunny 81 27.4 48 8.7 31 31 S 6 9 30.09 1019 10 16.0934 N/A
3:55 pm 15:55 Sunny 82 27.5 48 9 31 31 SE 3 6 30.09 1019 10 16.0934 N/A
4:15 pm 16:15 Sunny 82 27.5 49 9.6 33 33 S 7 11 30.09 1019 10 16.0934 N/A
4:35 pm 16:35 Sunny 82 27.6 48 8.7 30 30 SSE 6 9 30.09 1019 10 16.0934 N/A
4:55 pm 16:55 Sunny 82 27.7 49 9.3 32 32 S 6 9 30.09 1019 10 16.0934 N/A
5:15 pm 17:15 Partly Cloudy 81 27.3 49 9.6 33 33 SE 5 7 30.09 1019 10 16.0934 N/A
5:35 pm 17:35 Partly Cloudy 81 27 50 10.2 35 35 SSE 6 9 30.09 1019 10 16.0934 N/A
5:55 pm 17:55 Partly Cloudy 82 27.9 49 9.7 32 32 SSE 7 11 30.06 1018 10 16.0934 N/A
6:15 pm 18:15 Partly Cloudy 82 27.7 50 10 33 33 SE 5 7 30.06 1018 10 16.0934 N/A
6:35 pm 18:35 Sunny 82 27.6 50 9.9 33 33 SE 7 11 30.06 1018 10 16.0934 N/A
6:55 pm 18:55 Sunny 82 27.6 50 9.9 33 33 SE 7 11 30.06 1018 10 16.0934 N/A
7:15 pm 19:15 Sunny 81 27.3 50 10.1 34 34 SSE 7 11 30.06 1018 10 16.0934 N/A
7:35 pm 19:35 Sunny 80 26.7 48 8.8 32 32 SE 10 17 30.06 1018 10 16.0934 N/A
7:55 pm 19:55 Sunny 79 26.1 52 11 39 39 SSE 10 17 30.06 1018 10 16.0934 N/A
8:15 pm 20:15 Sunny 77 25.1 56 13.1 47 47 SE 8 13 30.09 1019 10 16.0934 N/A
8:35 pm 20:35 Sunny 75 24.1 56 13.2 51 51 SE 8 13 30.09 1019 10 16.0934 N/A
8:55 pm 20:55 Sunny 73 23 56 13.5 55 55 SE 8 13 30.09 1019 10 16.0934 N/A
9:15 pm 21:15 Clear 72 22.3 57 13.8 59 59 SE 6 9 30.09 1019 10 16.0934 N/A
9:35 pm 21:35 Clear 69 20.8 57 14 65 65 SE 5 7 30.12 1020 10 16.0934 N/A
9:55 pm 21:55 Clear 67 19.7 58 14.4 72 72 SSE 6 9 30.15 1021 10 16.0934 N/A
10:15 pm 22:15 Clear 66 18.9 58 14.5 76 76 SSE 5 7 30.15 1021 10 16.0934 N/A
10:35 pm 22:35 Clear 66 18.7 59 15 79 79 SSE 5 7 30.15 1021 10 16.0934 N/A
10:55 pm 22:55 Clear 65 18.2 59 15 82 82 SSE 3 6 30.18 1022 7 11.26538 N/A
11:15 pm 23:15 Clear 64 18 59 15.1 83 83 S 3 6 30.18 1022 10 16.0934 N/A
11:35 pm 23:35 Clear 63 17.3 58 14.5 84 84 SSE 3 6 30.18 1022 10 16.0934 N/A
11:55 pm 23:55 Clear 63 17.3 58 14.5 84 84 SSE 5 7 30.18 1022 10 16.0934 N/A

Powered by AerisWeather